Change the Weather History Date:

Wednesday, June 26, 2013

  Actual Average Record
Temperature  
Mean Temperature 76 °F -  
Max Temperature 84 °F 79 °F 91 °F (1998)
Min Temperature 69 °F 57 °F 46 °F (2004)
Cooling Degree Days 10    
Growing Degree Days 26 (Base 50)    
Moisture  
Dew Point 70 °F    
Average Humidity 84    
Maximum Humidity 97    
Minimum Humidity 63    
Precipitation  
Precipitation 0.07 in - - ()
Sea Level Pressure  
Sea Level Pressure 29.73 in    
Wind  
Wind Speed 4 mph (SE)    
Max Wind Speed 14 mph    
Max Gust Speed 22 mph    
Visibility 8 miles    
Events Rain , Thunderstorm    
Averages and records for this station are not official NWS values.
T = Trace of Precipitation, MM = Missing Value Source: NWS Daily Summary

Daily Weather History Graph

Daily Weather History Graph

Search for Another Location

Airport or City:

Trip Planner

Search our weather history database for the weather conditions in past years. The results will help you decide how hot, cold, wet, or windy it might be!

Date:

Astronomy

Jun. 26, 2013 Rise Set
Actual Time 5:22 AM CDT 8:44 PM CDT
Civil Twilight 4:46 AM CDT 9:20 PM CDT
Nautical Twilight 4:00 AM CDT 10:06 PM CDT
Astronomical Twilight 3:03 AM CDT 11:03 PM CDT
Moon 11:00 PM CDT (6/26) 9:20 AM CDT (6/26)
Length of Visible Light 16h 33m
Length of Day
15h 22m
Waning Gibbous, 85% of the Moon is Illuminated
Jun 26
Waning Gibbous
Jun 29
Last Quarter
Jul 8
New
Jul 15
First Quarter
Jul 22
Full

Hourly Weather History & Observations

Time (CDT) Temp. Heat Index Dew Point Humidity Pressure Visibility Wind Dir Wind Speed Gust Speed Precip Events Conditions
12:56 AM 73.0 °F - 71.1 °F 93% 29.74 in 3.0 mi ESE 3.5 mph - N/A   Clear
1:56 AM 73.9 °F - 72.0 °F 93% 29.73 in 4.0 mi East 4.6 mph - N/A   Mostly Cloudy
2:56 AM 73.9 °F - 72.0 °F 93% 29.71 in 5.0 mi ENE 3.5 mph - N/A   Scattered Clouds
3:53 AM 73.4 °F - 71.6 °F 94% 29.72 in 3.0 mi ESE 5.8 mph - 0.02 in Rain , Thunderstorm Light Thunderstorms and Rain
3:56 AM 73.9 °F - 72.0 °F 93% 29.69 in 2.5 mi Variable 5.8 mph - 0.04 in Rain , Thunderstorm Heavy Thunderstorms and Rain
4:13 AM 75.2 °F - 71.6 °F 89% 29.71 in 5.0 mi Variable 5.8 mph - 0.03 in Rain , Thunderstorm Light Thunderstorms and Rain
4:27 AM 75.2 °F - 71.6 °F 89% 29.72 in 5.0 mi Calm Calm - 0.03 in Rain , Thunderstorm Light Thunderstorms and Rain
4:56 AM 73.0 °F - 71.1 °F 93% 29.68 in 4.0 mi ENE 6.9 mph - 0.03 in Thunderstorm Mostly Cloudy
5:03 AM 71.6 °F - 69.8 °F 94% 29.71 in 5.0 mi SE 3.5 mph - N/A   Mostly Cloudy
5:51 AM 71.6 °F - 69.8 °F 94% 29.73 in 6.0 mi East 4.6 mph - N/A Thunderstorm Overcast
5:56 AM 71.1 °F - 68.0 °F 90% 29.70 in 6.0 mi ESE 5.8 mph - N/A Thunderstorm Overcast
6:23 AM 71.6 °F - 68.0 °F 88% 29.76 in 6.0 mi ESE 13.8 mph 21.9 mph 0.00 in Rain , Thunderstorm Light Thunderstorms and Rain
6:54 AM 69.8 °F - 68.0 °F 94% 29.76 in 10.0 mi East 9.2 mph - 0.00 in Thunderstorm Mostly Cloudy
6:56 AM 70.0 °F - 68.0 °F 93% 29.73 in 10.0 mi East 8.1 mph - 0.00 in Thunderstorm Mostly Cloudy
7:04 AM 69.8 °F - 68.0 °F 94% 29.76 in 10.0 mi East 8.1 mph - N/A   Mostly Cloudy
7:56 AM 70.0 °F - 66.9 °F 90% 29.73 in 10.0 mi SSE 6.9 mph - N/A   Scattered Clouds
8:56 AM 71.1 °F - 66.9 °F 87% 29.73 in 10.0 mi SE 5.8 mph - N/A   Partly Cloudy
9:56 AM 73.0 °F - 66.9 °F 81% 29.73 in 10.0 mi WNW 3.5 mph - N/A   Clear
10:56 AM 75.0 °F - 68.0 °F 79% 29.73 in 10.0 mi West 3.5 mph - N/A   Clear
11:52 AM 77.0 °F - 68.0 °F 74% 29.76 in 10.0 mi South 6.9 mph - N/A   Mostly Cloudy
11:56 AM 75.9 °F - 68.0 °F 76% 29.74 in 10.0 mi South 5.8 mph - N/A   Mostly Cloudy
12:56 PM 79.0 °F - 69.1 °F 72% 29.75 in 10.0 mi Calm Calm - N/A   Overcast
1:05 PM 80.6 °F 83.9 °F 69.8 °F 70% 29.78 in 10.0 mi Calm Calm - N/A   Mostly Cloudy
1:26 PM 78.8 °F - 68.0 °F 69% 29.77 in 10.0 mi Calm Calm - N/A   Mostly Cloudy
1:56 PM 79.0 °F - 69.1 °F 72% 29.73 in 10.0 mi SE 9.2 mph - N/A   Mostly Cloudy
2:56 PM 82.0 °F 86.3 °F 71.1 °F 69% 29.73 in 10.0 mi ESE 6.9 mph - N/A   Partly Cloudy
3:56 PM 82.9 °F 86.5 °F 69.1 °F 63% 29.73 in 10.0 mi Calm Calm - N/A   Mostly Cloudy
4:56 PM 82.9 °F 87.0 °F 70.0 °F 65% 29.73 in 10.0 mi Calm Calm - N/A   Mostly Cloudy
5:56 PM 81.0 °F 84.9 °F 71.1 °F 72% 29.71 in 10.0 mi SW 4.6 mph - N/A   Mostly Cloudy
6:56 PM 81.0 °F 84.9 °F 71.1 °F 72% 29.71 in 10.0 mi SW 3.5 mph - N/A   Clear
7:56 PM 78.1 °F - 73.0 °F 84% 29.71 in 10.0 mi Calm Calm - N/A   Scattered Clouds
8:56 PM 77.0 °F - 73.0 °F 88% 29.72 in 10.0 mi Calm Calm - N/A   Partly Cloudy
9:56 PM 75.9 °F - 72.0 °F 87% 29.73 in 9.0 mi Calm Calm - N/A   Scattered Clouds
10:56 PM 72.0 °F - 71.1 °F 97% 29.74 in 6.0 mi Calm Calm - N/A   Clear
11:56 PM 73.0 °F - 71.1 °F 93% 29.75 in 6.0 mi Calm Calm - N/A   Scattered Clouds